This is the latest recevied weather packets stored in our database for station/object KN6ZYR. If no packets are shown the sender has not sent any weather packets the latest 10 day(s).
| Time | Temp. | Humidity | Pressure | Rain* | Wind** | Luminosity | Snow |
|---|---|---|---|---|---|---|---|
| 1777837448 | 20° C | 25% | 1015.3 hPa | 0 mm | - | 244 W/m² | - |
| 1777837143 | 20° C | 25% | 1015.7 hPa | 0 mm | - | 204 W/m² | - |
| 1777836839 | 20° C | 24% | 1015.7 hPa | 0 mm | - | 150 W/m² | - |
| 1777836534 | 20° C | 25% | 1015.7 hPa | 0 mm | - | 125 W/m² | - |
| 1777836230 | 20° C | 28% | 1015.8 hPa | 0 mm | - | 132 W/m² | - |
| 1777835927 | 21.11° C | 23% | 1015.3 hPa | 0 mm | - | 88 W/m² | - |
| 1777835624 | 20.56° C | 26% | 1015.8 hPa | 0 mm | - | 121 W/m² | - |
| 1777835321 | 21.67° C | 25% | 1015.6 hPa | 0 mm | - | 202 W/m² | - |
| 1777835018 | 21.11° C | 24% | 1015.7 hPa | 0 mm | - | 241 W/m² | - |
| 1777834715 | 22.78° C | 24% | 1015.6 hPa | 0 mm | - | 201 W/m² | - |
| 1777834411 | 25° C | 20% | 1015.6 hPa | 0 mm | - | 875 W/m² | - |
| 1777834106 | 24.44° C | 20% | 1015.5 hPa | 0 mm | - | 359 W/m² | - |
| 1777833802 | 22.22° C | 22% | 1015.3 hPa | 0 mm | - | 912 W/m² | - |
| 1777833498 | 23.33° C | 21% | 1015.3 hPa | 0 mm | - | 179 W/m² | - |
| 1777833195 | 23.33° C | 21% | 1015.7 hPa | 0 mm | - | 502 W/m² | - |
| 1777832893 | 22.78° C | 21% | 1015.9 hPa | 0 mm | - | 736 W/m² | - |
| 1777832592 | 23.33° C | 22% | 1015.7 hPa | 0 mm | - | 263 W/m² | - |
| 1777832289 | 22.78° C | 23% | 1015.9 hPa | 0 mm | - | 827 W/m² | - |
| 1777831986 | 21.67° C | 23% | 1015.8 hPa | 0 mm | - | 635 W/m² | - |
| 1777831682 | 21.67° C | 24% | 1016 hPa | 0 mm | - | 299 W/m² | - |
| 1777831380 | 20.56° C | 25% | 1016.2 hPa | 0 mm | - | 624 W/m² | - |
| 1777831076 | 20.56° C | 25% | 1015.7 hPa | 0 mm | - | 491 W/m² | - |
| 1777830774 | 20.56° C | 27% | 1015.9 hPa | 0 mm | - | 438 W/m² | - |
| 1777830469 | 20.56° C | 25% | 1016.3 hPa | 0 mm | - | 269 W/m² | - |
| 1777830168 | 20.56° C | 25% | 1016.4 hPa | 0 mm | - | 198 W/m² | - |
* Rain latest hour (hover to see other rain measurements)
** Current wind speed in m/s (hover to see current wind gust speed)